When you browse on this site, cookies collect data to enhance your experience and personalize the content and advertising you see.
Visit our Privacy Policy to learn more. By continuing to use the site, you agree to this use of cookies and data.
  • în România
  • Lista ţărilor
  • Pe 7 zile
  • Temperatura apei
  • Hartă satelitară
  • Meteo pe hartă
  • Widget-uri
  • user-avatar
    Intrare

    Meteo pe oră la Ozerki

    Astăzi, 25 Martie, Luni

    Timp Temperatura Precipitaţii Vânt Presiune Umiditate
    00:00 -1°C° 0 mm 2 m/s 741 mmHg 75%
    01:00 -2°C° 0 mm 2 m/s 741 mmHg 76%
    02:00 -3°C° 0 mm 2 m/s 741 mmHg 77%
    03:00 -3°C° 0 mm 2 m/s 740 mmHg 78%
    04:00 -3°C° 0 mm 2 m/s 740 mmHg 79%
    05:00 -3°C° 0 mm 2 m/s 740 mmHg 79%
    06:00 -2°C° 0 mm 2 m/s 740 mmHg 75%
    07:00 -1°C° 0 mm 2 m/s 740 mmHg 71%
    08:00 0°C° 0 mm 3 m/s 739 mmHg 65%
    09:00 +2°C° 0 mm 3 m/s 739 mmHg 58%
    10:00 +3°C° 0 mm 4 m/s 739 mmHg 51%
    11:00 +5°C° 0 mm 4 m/s 739 mmHg 44%
    12:00 +5°C° 0 mm 4 m/s 739 mmHg 44%
    13:00 +6°C° 0 mm 4 m/s 738 mmHg 44%
    14:00 +7°C° 0 mm 3 m/s 738 mmHg 43%
    15:00 +5°C° 0 mm 3 m/s 738 mmHg 48%
    16:00 +6°C° 0 mm 2 m/s 738 mmHg 53%
    17:00 +5°C° 0 mm 2 m/s 737 mmHg 59%
    18:00 +4°C° 0 mm 2 m/s 737 mmHg 63%
    19:00 +2°C° 0 mm 2 m/s 737 mmHg 68%
    20:00 +1°C° 0 mm 2 m/s 737 mmHg 73%
    21:00 -1°C° 0 mm 2 m/s 737 mmHg 74%
    22:00 -1°C° 0 mm 2 m/s 737 mmHg 75%
    23:00 -1°C° 0 mm 2 m/s 737 mmHg 77%

    Mâine, 26 Martie, Marţi

    Timp Temperatura Precipitaţii Vânt Presiune Umiditate
    00:00 -1°C° 0 mm 2 m/s 737 mmHg 79%
    01:00 -1°C° 0 mm 2 m/s 736 mmHg 82%
    02:00 -2°C° 0 mm 2 m/s 736 mmHg 85%
    03:00 -2°C° 0.1 mm 2 m/s 736 mmHg 87%
    04:00 -2°C° 0.1 mm 2 m/s 736 mmHg 89%
    05:00 -1°C° 0.1 mm 2 m/s 736 mmHg 91%
    06:00 -1°C° 0.2 mm 3 m/s 736 mmHg 88%
    07:00 -1°C° 0.2 mm 3 m/s 736 mmHg 85%
    08:00 -1°C° 0.2 mm 4 m/s 736 mmHg 83%
    09:00 -1°C° 0.1 mm 4 m/s 737 mmHg 76%
    10:00 -1°C° 0.1 mm 4 m/s 737 mmHg 70%
    11:00 0°C° 0.1 mm 4 m/s 737 mmHg 63%
    12:00 0°C° 0 mm 4 m/s 737 mmHg 62%
    13:00 0°C° 0 mm 4 m/s 738 mmHg 60%
    14:00 0°C° 0 mm 4 m/s 738 mmHg 59%
    15:00 +1°C° 0 mm 3 m/s 738 mmHg 59%
    16:00 +1°C° 0 mm 3 m/s 738 mmHg 59%
    17:00 +2°C° 0 mm 2 m/s 738 mmHg 59%
    18:00 -1°C° 0 mm 2 m/s 738 mmHg 64%
    19:00 -2°C° 0 mm 2 m/s 739 mmHg 68%
    20:00 -1°C° 0 mm 1 m/s 739 mmHg 72%
    21:00 -1°C° 0 mm 1 m/s 739 mmHg 73%
    22:00 -1°C° 0 mm 1 m/s 739 mmHg 74%
    23:00 -2°C° 0 mm 1 m/s 740 mmHg 74%

    Poimâine, 27 Martie, Miercuri

    Timp Temperatura Precipitaţii Vânt Presiune Umiditate
    00:00 -2°C° 0 mm 1 m/s 740 mmHg 77%
    01:00 -2°C° 0 mm 1 m/s 740 mmHg 79%
    02:00 -2°C° 0 mm 1 m/s 740 mmHg 81%
    03:00 -4°C° 0 mm 2 m/s 741 mmHg 82%
    04:00 -5°C° 0 mm 2 m/s 741 mmHg 83%
    05:00 -5°C° 0 mm 2 m/s 741 mmHg 83%
    06:00 -5°C° 0 mm 3 m/s 742 mmHg 80%
    07:00 -4°C° 0 mm 3 m/s 742 mmHg 76%
    08:00 -3°C° 0 mm 4 m/s 743 mmHg 72%
    09:00 -2°C° 0.1 mm 4 m/s 744 mmHg 67%
    10:00 -2°C° 0.1 mm 4 m/s 744 mmHg 62%
    11:00 -1°C° 0.1 mm 4 m/s 745 mmHg 57%
    12:00 -1°C° 0 mm 4 m/s 745 mmHg 57%
    13:00 -1°C° 0 mm 4 m/s 746 mmHg 56%
    14:00 -1°C° 0 mm 4 m/s 746 mmHg 56%
    15:00 -1°C° 0 mm 4 m/s 747 mmHg 56%
    16:00 -1°C° 0 mm 4 m/s 747 mmHg 57%
    17:00 -1°C° 0 mm 4 m/s 747 mmHg 57%
    18:00 -1°C° 0 mm 3 m/s 748 mmHg 62%
    19:00 -1°C° 0 mm 3 m/s 749 mmHg 67%
    20:00 -2°C° 0 mm 2 m/s 749 mmHg 71%
    21:00 -3°C° 0 mm 2 m/s 750 mmHg 74%
    22:00 -3°C° 0 mm 2 m/s 750 mmHg 77%
    23:00 -4°C° 0 mm 2 m/s 750 mmHg 80%

    28 Martie, Joi

    Timp Temperatura Precipitaţii Vânt Presiune Umiditate
    00:00 -5°C° 0 mm 3 m/s 750 mmHg 81%
    01:00 -5°C° 0 mm 3 m/s 751 mmHg 82%
    02:00 -5°C° 0 mm 3 m/s 751 mmHg 83%
    03:00 -5°C° 0 mm 3 m/s 752 mmHg 84%
    04:00 -5°C° 0 mm 3 m/s 752 mmHg 85%
    05:00 -6°C° 0 mm 3 m/s 752 mmHg 86%
    06:00 -5°C° 0 mm 3 m/s 753 mmHg 82%
    07:00 -4°C° 0 mm 3 m/s 753 mmHg 78%
    08:00 -4°C° 0 mm 3 m/s 753 mmHg 74%
    09:00 -2°C° 0 mm 3 m/s 754 mmHg 66%
    10:00 0°C° 0 mm 3 m/s 754 mmHg 59%
    11:00 +1°C° 0 mm 3 m/s 754 mmHg 51%
    12:00 +2°C° 0 mm 3 m/s 754 mmHg 46%
    13:00 +2°C° 0 mm 3 m/s 753 mmHg 41%
    14:00 +3°C° 0 mm 3 m/s 753 mmHg 36%
    15:00 +3°C° 0 mm 3 m/s 753 mmHg 40%
    16:00 +3°C° 0 mm 2 m/s 753 mmHg 44%
    17:00 +3°C° 0 mm 2 m/s 752 mmHg 48%
    18:00 +2°C° 0 mm 2 m/s 752 mmHg 55%
    19:00 +2°C° 0 mm 2 m/s 752 mmHg 62%
    20:00 +1°C° 0 mm 2 m/s 752 mmHg 69%
    21:00 0°C° 0 mm 3 m/s 751 mmHg 71%
    22:00 0°C° 0 mm 3 m/s 751 mmHg 74%
    23:00 -1°C° 0 mm 4 m/s 750 mmHg 77%

    29 Martie, Vineri

    Timp Temperatura Precipitaţii Vânt Presiune Umiditate
    00:00 -1°C° 0.1 mm 4 m/s 750 mmHg 77%
    01:00 0°C° 0.1 mm 5 m/s 749 mmHg 77%
    02:00 0°C° 0.1 mm 5 m/s 748 mmHg 78%
    03:00 0°C° 0.1 mm 5 m/s 748 mmHg 80%
    04:00 +1°C° 0.1 mm 6 m/s 747 mmHg 82%
    05:00 +1°C° 0.1 mm 6 m/s 747 mmHg 84%
    06:00 +1°C° 0 mm 6 m/s 747 mmHg 80%
    07:00 +1°C° 0 mm 6 m/s 748 mmHg 76%
    08:00 +1°C° 0 mm 6 m/s 748 mmHg 73%
    09:00 +2°C° 0 mm 6 m/s 748 mmHg 68%
    10:00 +3°C° 0 mm 6 m/s 749 mmHg 63%
    11:00 +3°C° 0 mm 6 m/s 749 mmHg 58%
    12:00 +5°C° 0 mm 5 m/s 749 mmHg 54%
    13:00 +6°C° 0 mm 5 m/s 749 mmHg 49%
    14:00 +7°C° 0 mm 4 m/s 749 mmHg 45%
    15:00 +6°C° 0 mm 4 m/s 749 mmHg 49%
    16:00 +7°C° 0 mm 3 m/s 749 mmHg 52%
    17:00 +7°C° 0 mm 2 m/s 748 mmHg 56%
    18:00 +5°C° 0 mm 2 m/s 748 mmHg 61%
    19:00 +4°C° 0 mm 2 m/s 748 mmHg 67%
    20:00 +3°C° 0 mm 2 m/s 749 mmHg 72%
    21:00 +3°C° 0 mm 2 m/s 748 mmHg 74%
    22:00 +3°C° 0 mm 2 m/s 748 mmHg 75%
    23:00 +3°C° 0 mm 2 m/s 747 mmHg 77%

    30 Martie, Sâmbătă

    Timp Temperatura Precipitaţii Vânt Presiune Umiditate
    00:00 +2°C° 0 mm 3 m/s 747 mmHg 81%
    01:00 +2°C° 0 mm 3 m/s 746 mmHg 84%
    02:00 +2°C° 0 mm 3 m/s 746 mmHg 88%
    03:00 +3°C° 0 mm 3 m/s 745 mmHg 91%
    04:00 +3°C° 0 mm 4 m/s 745 mmHg 93%
    05:00 +4°C° 0 mm 4 m/s 745 mmHg 96%
    06:00 +4°C° 0 mm 4 m/s 745 mmHg 94%
    07:00 +4°C° 0 mm 4 m/s 745 mmHg 92%
    08:00 +4°C° 0 mm 4 m/s 745 mmHg 89%
    09:00 +4°C° 0 mm 4 m/s 745 mmHg 87%
    10:00 +5°C° 0 mm 4 m/s 745 mmHg 84%
    11:00 +5°C° 0 mm 4 m/s 745 mmHg 82%
    12:00 +6°C° 0 mm 4 m/s 745 mmHg 80%
    13:00 +6°C° 0 mm 4 m/s 745 mmHg 77%
    14:00 +7°C° 0 mm 4 m/s 745 mmHg 75%
    15:00 +7°C° 0 mm 4 m/s 744 mmHg 75%
    16:00 +8°C° 0 mm 3 m/s 744 mmHg 75%
    17:00 +8°C° 0 mm 3 m/s 744 mmHg 75%
    18:00 +7°C° 0 mm 3 m/s 744 mmHg 80%
    19:00 +6°C° 0 mm 2 m/s 744 mmHg 86%
    20:00 +4°C° 0 mm 2 m/s 744 mmHg 91%
    21:00 +4°C° 0 mm 2 m/s 743 mmHg 91%
    22:00 +3°C° 0 mm 3 m/s 743 mmHg 91%
    23:00 +3°C° 0 mm 3 m/s 742 mmHg 91%
    Arată mai mult